PROFILE

 METAR AND TAF INFORMATION
ADDS - METARS form results

(0554 UTC 19 July 2019)
http://aviationweather.gov/metar/data/
 
GMMN 190530Z 02004KT 350V070 9999 SCT016 20/19 Q1012 NOSIG
GMMN 190500Z 02005KT 9999 SCT016 20/19 Q1012 NOSIG
TAF GMMN 190500Z 1906/2012 01004KT 9999 SCT016 BECMG 1912/1915 34013KT BECMG 1921/1924 20004KT TEMPO 2002/2007 3000 BR BKN010 

 AIRPORT MAP

 RUNWAY INFORMATION
Runway 17L Runway length 12205 ft Runway width 148 ft
Runway elevation 633 ft Runway displaced threshold 0 ft Runway heading 164
Runway 35R Runway length 12205 ft Runway width 148 ft
Runway elevation 656 ft Runway displaced threshold 0 ft Runway heading 344
Runway 17R Runway length 12205 ft Runway width 148 ft
Runway elevation 636 ft Runway displaced threshold 0 ft Runway heading 164
Runway 35L Runway length 12205 ft Runway width 148 ft
Runway elevation 656 ft Runway displaced threshold 0 ft Runway heading 344

 AIRPORT FREQUENCIES
Type APP Name APP Frequency 121.3 MHZ
Type ATIS Name ATIS Frequency 126.4 MHZ
Type TWR Name TWR Frequency 118.5 MHZ

 AIRPORT NEAR NAVIGATION AIDS
Type VOR-DME Name Casablanca Frequency 114000 KHZ